Time,TemperatureF,DewpointF,PressureIn,WindDirection,WindDirectionDegrees,WindSpeedMPH,WindSpeedGustMPH,Humidity,HourlyPrecipIn,Conditions,Clouds,dailyrainin,SoftwareType,DateUTC
2013-02-15 00:02:00,39.7,35.9,30.14,SE,124,4.9,5.4,86,0.00,,CLR,0.00,VWS V14.01,2013-02-15 08:02:00,
2013-02-15 00:07:00,39.9,36.4,30.14,SE,124,4.9,4.9,87,0.00,,CLR,0.00,VWS V14.01,2013-02-15 08:07:00,
2013-02-15 00:12:00,39.2,35.4,30.14,ESE,123,4.5,4.5,86,0.00,,CLR,0.00,VWS V14.01,2013-02-15 08:12:00,
2013-02-15 00:17:00,39.6,36.0,30.14,ESE,123,3.6,4.0,87,0.00,,CLR,0.00,VWS V14.01,2013-02-15 08:17:00,
2013-02-15 00:22:00,39.9,37.0,30.14,ESE,122,3.6,4.0,89,0.00,,CLR,0.00,VWS V14.01,2013-02-15 08:22:00,
2013-02-15 00:27:00,38.8,35.6,30.14,ESE,123,4.9,5.4,88,0.00,,CLR,0.00,VWS V14.01,2013-02-15 08:27:00,
2013-02-15 00:32:00,39.0,35.5,30.16,ESE,123,3.6,4.9,87,0.00,,CLR,0.00,VWS V14.01,2013-02-15 08:32:00,
2013-02-15 00:38:00,38.3,34.8,30.16,ESE,123,4.0,4.5,87,0.00,,CLR,0.00,VWS V14.01,2013-02-15 08:38:00,
2013-02-15 00:43:00,38.5,34.7,30.16,ESE,123,5.4,5.4,86,0.00,,CLR,0.00,VWS V14.01,2013-02-15 08:43:00,
2013-02-15 00:48:00,38.7,35.4,30.14,ESE,123,4.5,4.5,88,0.00,,CLR,0.00,VWS V14.01,2013-02-15 08:48:00,
2013-02-15 00:53:00,38.7,35.7,30.14,ESE,123,4.0,4.5,89,0.00,,CLR,0.00,VWS V14.01,2013-02-15 08:53:00,
2013-02-15 00:58:00,38.3,35.3,30.14,ESE,123,4.5,5.8,89,0.00,,CLR,0.00,VWS V14.01,2013-02-15 08:58:00,
2013-02-15 01:04:00,38.8,36.2,30.16,SE,124,3.6,4.5,90,0.00,,CLR,0.00,VWS V14.01,2013-02-15 09:04:00,
2013-02-15 01:09:00,38.8,36.4,30.16,ESE,123,6.3,6.3,91,0.00,,CLR,0.00,VWS V14.01,2013-02-15 09:09:00,
2013-02-15 01:14:00,39.0,36.6,30.16,ESE,123,4.5,4.9,91,0.00,,CLR,0.00,VWS V14.01,2013-02-15 09:14:00,
2013-02-15 01:19:00,39.2,37.1,30.16,ESE,122,3.6,3.6,92,0.00,,CLR,0.00,VWS V14.01,2013-02-15 09:19:00,
2013-02-15 01:24:00,39.4,37.5,30.16,ESE,123,0.0,0.0,93,0.00,,CLR,0.00,VWS V14.01,2013-02-15 09:24:00,
2013-02-15 01:29:00,37.9,35.8,30.16,ESE,123,3.6,3.6,92,0.00,,CLR,0.00,VWS V14.01,2013-02-15 09:29:00,
2013-02-15 01:34:00,37.4,34.7,30.16,ESE,120,4.9,4.9,90,0.00,,CLR,0.00,VWS V14.01,2013-02-15 09:34:00,
2013-02-15 01:39:00,37.6,34.9,30.16,SE,124,4.5,4.9,90,0.00,,CLR,0.00,VWS V14.01,2013-02-15 09:39:00,
2013-02-15 01:45:00,37.2,34.6,30.16,ESE,123,4.9,4.9,90,0.00,,CLR,0.00,VWS V14.01,2013-02-15 09:45:00,
2013-02-15 01:50:00,37.6,35.2,30.16,ESE,123,4.9,5.4,91,0.00,,CLR,0.00,VWS V14.01,2013-02-15 09:50:00,
2013-02-15 01:55:00,37.6,35.5,30.16,ESE,123,3.6,4.5,92,0.00,,CLR,0.00,VWS V14.01,2013-02-15 09:55:00,
2013-02-15 02:00:00,37.8,35.9,30.16,ESE,123,4.0,4.5,93,0.00,,CLR,0.00,VWS V14.01,2013-02-15 10:00:00,
2013-02-15 02:05:00,38.1,36.3,30.16,ESE,122,3.1,4.0,93,0.00,,CLR,0.00,VWS V14.01,2013-02-15 10:05:00,
2013-02-15 02:10:00,38.5,36.9,30.16,ESE,123,3.6,3.6,94,0.00,,CLR,0.00,VWS V14.01,2013-02-15 10:10:00,
2013-02-15 02:15:00,38.7,37.1,30.16,ESE,123,3.1,4.0,94,0.00,,CLR,0.00,VWS V14.01,2013-02-15 10:15:00,
2013-02-15 02:20:00,36.9,34.8,30.16,ESE,122,3.1,3.6,92,0.00,,CLR,0.00,VWS V14.01,2013-02-15 10:20:00,
2013-02-15 02:25:00,36.9,34.5,30.16,ESE,123,4.5,4.9,91,0.00,,CLR,0.00,VWS V14.01,2013-02-15 10:25:00,
2013-02-15 02:30:00,36.7,34.0,30.16,SE,124,3.6,4.5,90,0.00,,CLR,0.00,VWS V14.01,2013-02-15 10:30:00,
2013-02-15 02:35:00,37.2,35.1,30.16,SE,124,3.6,3.6,92,0.00,,CLR,0.00,VWS V14.01,2013-02-15 10:35:00,
2013-02-15 02:40:00,37.8,35.9,30.16,ESE,123,4.0,4.9,93,0.00,,CLR,0.00,VWS V14.01,2013-02-15 10:40:00,
2013-02-15 02:45:00,36.9,35.0,30.16,ESE,123,4.0,4.5,93,0.00,,CLR,0.00,VWS V14.01,2013-02-15 10:45:00,
2013-02-15 02:51:00,36.9,34.8,30.16,ESE,122,4.0,4.5,92,0.00,,CLR,0.00,VWS V14.01,2013-02-15 10:51:00,
2013-02-15 02:56:00,36.7,34.6,30.16,ESE,122,4.5,4.5,92,0.00,,CLR,0.00,VWS V14.01,2013-02-15 10:56:00,
2013-02-15 03:01:00,36.9,35.0,30.16,ESE,123,3.6,4.0,93,0.00,,,0.00,VWS V14.01,2013-02-15 11:01:00,
2013-02-15 03:06:00,37.0,35.5,30.16,ESE,122,3.6,4.5,94,0.00,,,0.00,VWS V14.01,2013-02-15 11:06:00,
2013-02-15 03:11:00,37.4,35.8,30.16,ESE,122,3.6,3.6,94,0.00,,,0.00,VWS V14.01,2013-02-15 11:11:00,
2013-02-15 03:16:00,37.8,36.5,30.16,ESE,123,4.0,4.0,95,0.00,,,0.00,VWS V14.01,2013-02-15 11:16:00,
2013-02-15 03:21:00,35.6,33.8,30.16,ESE,123,4.5,5.4,93,0.00,,,0.00,VWS V14.01,2013-02-15 11:21:00,
2013-02-15 03:26:00,36.7,34.8,30.16,ESE,123,3.1,4.0,93,0.00,,,0.00,VWS V14.01,2013-02-15 11:26:00,
2013-02-15 03:31:00,37.0,35.5,30.16,ESE,123,0.0,0.0,94,0.00,,,0.00,VWS V14.01,2013-02-15 11:31:00,
2013-02-15 03:36:00,36.1,34.6,30.16,ESE,122,3.6,4.5,94,0.00,,,0.00,VWS V14.01,2013-02-15 11:36:00,
2013-02-15 03:41:00,35.8,34.0,30.16,ESE,122,3.6,4.5,93,0.00,,,0.00,VWS V14.01,2013-02-15 11:41:00,
2013-02-15 03:46:00,36.0,34.1,30.16,ESE,123,4.5,4.9,93,0.00,,,0.00,VWS V14.01,2013-02-15 11:46:00,
2013-02-15 03:51:00,36.0,34.1,30.16,ESE,123,4.0,4.9,93,0.00,,,0.00,VWS V14.01,2013-02-15 11:51:00,
2013-02-15 03:57:00,36.5,34.9,30.16,ESE,122,3.1,4.0,94,0.00,,,0.00,VWS V14.01,2013-02-15 11:57:00,
2013-02-15 04:02:00,37.0,35.7,30.14,ESE,123,3.1,4.0,95,0.00,,,0.00,VWS V14.01,2013-02-15 12:02:00,
2013-02-15 04:08:00,37.2,35.9,30.14,ESE,122,4.0,4.0,95,0.00,,,0.00,VWS V14.01,2013-02-15 12:08:00,
2013-02-15 04:13:00,35.4,33.9,30.14,ESE,122,4.0,4.9,94,0.00,,,0.00,VWS V14.01,2013-02-15 12:13:00,
2013-02-15 04:18:00,36.0,34.4,30.16,ESE,122,4.0,4.5,94,0.00,,,0.00,VWS V14.01,2013-02-15 12:18:00,
2013-02-15 04:23:00,36.3,34.8,30.16,ESE,123,3.1,4.0,94,0.00,,,0.00,VWS V14.01,2013-02-15 12:23:00,
2013-02-15 04:28:00,37.0,35.7,30.16,ESE,123,3.6,4.0,95,0.00,,,0.00,VWS V14.01,2013-02-15 12:28:00,
2013-02-15 04:33:00,37.6,36.5,30.16,ESE,122,0.0,3.1,96,0.00,,,0.00,VWS V14.01,2013-02-15 12:33:00,
2013-02-15 04:38:00,35.4,33.9,30.16,ESE,123,4.0,4.5,94,0.00,,,0.00,VWS V14.01,2013-02-15 12:38:00,
2013-02-15 04:43:00,35.2,33.4,30.16,ESE,123,0.0,0.0,93,0.00,,,0.00,VWS V14.01,2013-02-15 12:43:00,
2013-02-15 04:48:00,36.1,34.3,30.16,ESE,123,0.0,0.0,93,0.00,,,0.00,VWS V14.01,2013-02-15 12:48:00,
2013-02-15 04:53:00,36.7,35.1,30.16,ESE,123,0.0,0.0,94,0.00,,,0.00,VWS V14.01,2013-02-15 12:53:00,
2013-02-15 04:58:00,36.1,34.6,30.16,SE,124,0.0,0.0,94,0.00,,,0.00,VWS V14.01,2013-02-15 12:58:00,
2013-02-15 05:04:00,35.4,33.6,30.16,ESE,123,4.0,4.5,93,0.00,,CLR,0.00,VWS V14.01,2013-02-15 13:04:00,
2013-02-15 05:09:00,36.0,34.1,30.16,ESE,122,3.6,4.0,93,0.00,,CLR,0.00,VWS V14.01,2013-02-15 13:09:00,
2013-02-15 05:14:00,36.0,34.4,30.16,ESE,123,0.0,0.0,94,0.00,,CLR,0.00,VWS V14.01,2013-02-15 13:14:00,
2013-02-15 05:19:00,35.6,34.0,30.16,ESE,123,0.0,0.0,94,0.00,,CLR,0.00,VWS V14.01,2013-02-15 13:19:00,
2013-02-15 05:24:00,35.4,33.9,30.16,ESE,123,2.7,4.0,94,0.00,,CLR,0.00,VWS V14.01,2013-02-15 13:24:00,
2013-02-15 05:29:00,34.7,32.9,30.16,ESE,122,3.1,3.6,93,0.00,,CLR,0.00,VWS V14.01,2013-02-15 13:29:00,
2013-02-15 05:34:00,34.7,32.6,30.16,ESE,123,2.7,2.7,92,0.00,,CLR,0.00,VWS V14.01,2013-02-15 13:34:00,
2013-02-15 05:39:00,35.4,33.6,30.16,ESE,122,3.1,3.6,93,0.00,,CLR,0.00,VWS V14.01,2013-02-15 13:39:00,
2013-02-15 05:44:00,35.1,33.5,30.16,ESE,123,3.1,3.1,94,0.00,,CLR,0.00,VWS V14.01,2013-02-15 13:44:00,
2013-02-15 05:49:00,35.1,33.5,30.16,ESE,122,3.1,3.1,94,0.00,,CLR,0.00,VWS V14.01,2013-02-15 13:49:00,
2013-02-15 05:54:00,35.1,33.5,30.16,ESE,121,3.6,3.6,94,0.00,,CLR,0.00,VWS V14.01,2013-02-15 13:54:00,
2013-02-15 05:59:00,35.1,33.5,30.16,ESE,123,0.0,3.1,94,0.00,,CLR,0.00,VWS V14.01,2013-02-15 13:59:00,
2013-02-15 06:04:00,35.2,33.7,30.16,ESE,122,0.0,0.0,94,0.00,,CLR,0.00,VWS V14.01,2013-02-15 14:04:00,
2013-02-15 06:10:00,35.6,34.3,30.16,ESE,123,3.1,4.0,95,0.00,,CLR,0.00,VWS V14.01,2013-02-15 14:10:00,
2013-02-15 06:15:00,35.4,34.1,30.16,ESE,123,3.1,3.6,95,0.00,,CLR,0.00,VWS V14.01,2013-02-15 14:15:00,
2013-02-15 06:20:00,35.1,33.8,30.16,ESE,123,3.1,3.6,95,0.00,,CLR,0.00,VWS V14.01,2013-02-15 14:20:00,
2013-02-15 06:25:00,35.1,33.8,30.16,ESE,123,0.0,0.0,95,0.00,,CLR,0.00,VWS V14.01,2013-02-15 14:25:00,
2013-02-15 06:30:00,35.4,34.1,30.16,ESE,123,0.0,0.0,95,0.00,,CLR,0.00,VWS V14.01,2013-02-15 14:30:00,
2013-02-15 06:35:00,34.9,33.6,30.16,ESE,123,3.6,4.0,95,0.00,,CLR,0.00,VWS V14.01,2013-02-15 14:35:00,
2013-02-15 06:40:00,34.2,32.9,30.16,ESE,122,3.6,4.5,95,0.00,,CLR,0.00,VWS V14.01,2013-02-15 14:40:00,
2013-02-15 06:45:00,34.0,32.4,30.16,ESE,123,3.6,4.5,94,0.00,,CLR,0.00,VWS V14.01,2013-02-15 14:45:00,
2013-02-15 06:50:00,34.3,32.8,30.16,ESE,123,0.0,3.1,94,0.00,,CLR,0.00,VWS V14.01,2013-02-15 14:50:00,
2013-02-15 06:55:00,35.4,34.1,30.16,ESE,122,0.0,0.0,95,0.00,,CLR,0.00,VWS V14.01,2013-02-15 14:55:00,
2013-02-15 07:00:00,34.5,33.5,30.16,ESE,123,3.1,3.1,96,0.00,,,0.00,VWS V14.01,2013-02-15 15:00:00,
2013-02-15 07:05:00,33.4,31.9,30.16,ESE,123,3.6,4.5,94,0.00,,,0.00,VWS V14.01,2013-02-15 15:05:00,
2013-02-15 07:11:00,33.6,31.8,30.16,ESE,123,4.5,4.9,93,0.00,,,0.00,VWS V14.01,2013-02-15 15:11:00,
2013-02-15 07:16:00,34.2,32.6,30.16,ESE,122,3.6,3.6,94,0.00,,,0.00,VWS V14.01,2013-02-15 15:16:00,
2013-02-15 07:21:00,34.5,33.2,30.16,ESE,123,3.1,3.1,95,0.00,,,0.00,VWS V14.01,2013-02-15 15:21:00,
2013-02-15 07:26:00,34.9,33.6,30.16,ESE,123,4.0,4.0,95,0.00,,,0.00,VWS V14.01,2013-02-15 15:26:00,
2013-02-15 07:31:00,35.4,34.1,30.16,ESE,123,2.7,3.1,95,0.00,,,0.00,VWS V14.01,2013-02-15 15:31:00,
2013-02-15 07:36:00,35.6,34.6,30.16,ESE,123,4.0,4.5,96,0.00,,,0.00,VWS V14.01,2013-02-15 15:36:00,
2013-02-15 07:41:00,35.8,34.8,30.16,ESE,123,3.6,4.5,96,0.00,,,0.00,VWS V14.01,2013-02-15 15:41:00,
2013-02-15 07:46:00,36.9,35.8,30.16,ESE,123,3.1,3.6,96,0.00,,,0.00,VWS V14.01,2013-02-15 15:46:00,
2013-02-15 07:51:00,37.6,36.8,30.16,ESE,123,3.1,3.6,97,0.00,,,0.00,VWS V14.01,2013-02-15 15:51:00,
2013-02-15 07:56:00,37.8,37.0,30.16,ESE,123,0.0,3.1,97,0.00,,,0.00,VWS V14.01,2013-02-15 15:56:00,
2013-02-15 08:01:00,38.7,37.9,30.16,ESE,122,2.7,3.1,97,0.00,,,0.00,VWS V14.01,2013-02-15 16:01:00,
2013-02-15 08:06:00,39.2,38.4,30.16,ESE,122,0.0,0.0,97,0.00,,,0.00,VWS V14.01,2013-02-15 16:06:00,
2013-02-15 08:11:00,39.9,38.9,30.16,ESE,123,0.0,0.0,96,0.00,,,0.00,VWS V14.01,2013-02-15 16:11:00,
2013-02-15 08:16:00,40.3,39.2,30.19,ESE,123,0.0,0.0,96,0.00,,,0.00,VWS V14.01,2013-02-15 16:16:00,
2013-02-15 08:21:00,40.8,39.5,30.19,ESE,122,0.0,0.0,95,0.00,,,0.00,VWS V14.01,2013-02-15 16:21:00,
2013-02-15 08:26:00,41.4,40.0,30.19,ESE,123,0.0,0.0,95,0.00,,,0.00,VWS V14.01,2013-02-15 16:26:00,
2013-02-15 08:32:00,42.4,40.6,30.19,ESE,122,0.0,0.0,93,0.00,,,0.00,VWS V14.01,2013-02-15 16:32:00,
2013-02-15 08:37:00,43.5,41.1,30.19,ESE,122,0.0,0.0,91,0.00,,,0.00,VWS V14.01,2013-02-15 16:37:00,
2013-02-15 08:42:00,44.2,41.5,30.19,ESE,123,0.0,0.0,90,0.00,,,0.00,VWS V14.01,2013-02-15 16:42:00,
2013-02-15 08:47:00,45.0,42.2,30.19,ESE,123,0.0,0.0,90,0.00,,,0.00,VWS V14.01,2013-02-15 16:47:00,
2013-02-15 08:52:00,45.5,42.7,30.19,ESE,123,0.0,0.0,90,0.00,,,0.00,VWS V14.01,2013-02-15 16:52:00,
2013-02-15 08:57:00,46.2,43.7,30.19,ESE,122,0.0,0.0,91,0.00,,,0.00,VWS V14.01,2013-02-15 16:57:00,
2013-02-15 09:02:00,47.1,44.6,30.19,ESE,123,0.0,0.0,91,0.00,,,0.00,VWS V14.01,2013-02-15 17:02:00,
2013-02-15 09:07:00,48.0,45.5,30.19,ESE,123,0.0,0.0,91,0.00,,,0.00,VWS V14.01,2013-02-15 17:07:00,
2013-02-15 09:12:00,48.7,46.2,30.19,ESE,123,0.0,0.0,91,0.00,,,0.00,VWS V14.01,2013-02-15 17:12:00,
2013-02-15 09:17:00,49.3,45.9,30.19,ESE,123,0.0,0.0,88,0.00,,,0.00,VWS V14.01,2013-02-15 17:17:00,
2013-02-15 09:22:00,49.6,41.7,30.19,ESE,122,0.0,0.0,74,0.00,,,0.00,VWS V14.01,2013-02-15 17:22:00,
2013-02-15 09:27:00,50.7,40.6,30.19,ESE,123,0.0,0.0,68,0.00,,,0.00,VWS V14.01,2013-02-15 17:27:00,
2013-02-15 09:32:00,52.0,39.0,30.19,ESE,122,0.0,0.0,61,0.00,,,0.00,VWS V14.01,2013-02-15 17:32:00,
2013-02-15 09:37:00,53.2,39.3,30.19,ESE,122,0.0,0.0,59,0.00,,,0.00,VWS V14.01,2013-02-15 17:37:00,
2013-02-15 09:42:00,54.5,38.7,30.19,ESE,123,0.0,0.0,55,0.00,,,0.00,VWS V14.01,2013-02-15 17:42:00,
2013-02-15 09:47:00,55.6,39.7,30.19,WSW,240,5.4,5.4,55,0.00,,,0.00,VWS V14.01,2013-02-15 17:47:00,
2013-02-15 09:52:00,56.3,36.9,30.19,WSW,257,5.4,5.8,48,0.00,,,0.00,VWS V14.01,2013-02-15 17:52:00,
2013-02-15 09:57:00,56.8,36.8,30.19,WNW,283,6.3,8.3,47,0.00,,,0.00,VWS V14.01,2013-02-15 17:57:00,
2013-02-15 10:02:00,57.4,35.7,30.19,West,271,5.4,5.8,44,0.00,,CLR,0.00,VWS V14.01,2013-02-15 18:02:00,
2013-02-15 10:07:00,57.7,33.6,30.19,SW,230,6.7,6.7,40,0.00,,CLR,0.00,VWS V14.01,2013-02-15 18:07:00,
2013-02-15 10:12:00,58.6,33.1,30.19,WNW,288,6.3,6.9,38,0.00,,CLR,0.00,VWS V14.01,2013-02-15 18:12:00,
2013-02-15 10:17:00,59.2,33.6,30.19,West,275,5.8,6.3,38,0.00,,CLR,0.00,VWS V14.01,2013-02-15 18:17:00,
2013-02-15 10:23:00,59.5,33.3,30.19,WSW,249,5.8,5.8,37,0.00,,CLR,0.00,VWS V14.01,2013-02-15 18:23:00,
2013-02-15 10:28:00,59.9,31.5,30.19,WSW,240,4.5,6.7,34,0.00,,CLR,0.00,VWS V14.01,2013-02-15 18:28:00,
2013-02-15 10:33:00,60.3,32.5,30.19,WNW,289,6.9,7.8,35,0.00,,CLR,0.00,VWS V14.01,2013-02-15 18:33:00,
2013-02-15 10:39:00,60.6,32.8,30.19,WNW,297,5.4,7.4,35,0.00,,CLR,0.00,VWS V14.01,2013-02-15 18:39:00,
2013-02-15 10:44:00,61.0,33.2,30.19,West,279,4.9,5.8,35,0.00,,CLR,0.00,VWS V14.01,2013-02-15 18:44:00,
2013-02-15 10:49:00,61.3,32.8,30.19,West,270,6.3,6.3,34,0.00,,CLR,0.00,VWS V14.01,2013-02-15 18:49:00,
2013-02-15 10:54:00,61.5,32.9,30.19,West,280,6.3,7.4,34,0.00,,CLR,0.00,VWS V14.01,2013-02-15 18:54:00,
2013-02-15 10:59:00,61.9,33.2,30.19,WNW,289,7.4,8.3,34,0.00,,CLR,0.00,VWS V14.01,2013-02-15 18:59:00,
2013-02-15 11:04:00,62.2,33.5,30.19,West,274,4.9,6.7,34,0.00,,CLR,0.00,VWS V14.01,2013-02-15 19:04:00,
2013-02-15 11:09:00,62.2,32.8,30.19,WSW,246,6.7,7.8,33,0.00,,CLR,0.00,VWS V14.01,2013-02-15 19:09:00,
2013-02-15 11:14:00,62.8,33.3,30.19,SW,224,0.0,3.1,33,0.00,,CLR,0.00,VWS V14.01,2013-02-15 19:14:00,
2013-02-15 11:19:00,63.1,33.6,30.19,West,263,4.9,6.9,33,0.00,,CLR,0.00,VWS V14.01,2013-02-15 19:19:00,
2013-02-15 11:24:00,63.3,33.0,30.19,WNW,283,5.8,6.3,32,0.00,,CLR,0.00,VWS V14.01,2013-02-15 19:24:00,
2013-02-15 11:29:00,63.5,33.9,30.19,SSW,202,6.3,6.3,33,0.00,,CLR,0.00,VWS V14.01,2013-02-15 19:29:00,
2013-02-15 11:34:00,64.2,34.5,30.19,West,279,5.4,5.8,33,0.00,,CLR,0.00,VWS V14.01,2013-02-15 19:34:00,
2013-02-15 11:40:00,64.6,32.5,30.19,WSW,249,4.0,4.0,30,0.00,,CLR,0.00,VWS V14.01,2013-02-15 19:40:00,
2013-02-15 11:45:00,64.4,32.3,30.19,SW,236,4.5,4.5,30,0.00,,CLR,0.00,VWS V14.01,2013-02-15 19:45:00,
2013-02-15 11:50:00,64.8,32.6,30.19,WSW,251,4.9,4.9,30,0.00,,CLR,0.00,VWS V14.01,2013-02-15 19:50:00,
2013-02-15 11:55:00,64.9,33.6,30.19,West,272,6.9,6.9,31,0.00,,CLR,0.00,VWS V14.01,2013-02-15 19:55:00,
2013-02-15 12:00:00,65.3,33.9,30.19,SW,221,4.9,5.8,31,0.00,,CLR,0.00,VWS V14.01,2013-02-15 20:00:00,
2013-02-15 12:05:00,65.7,34.2,30.19,West,273,4.5,7.4,31,0.00,,CLR,0.00,VWS V14.01,2013-02-15 20:05:00,
2013-02-15 12:10:00,64.9,33.6,30.19,WNW,289,5.4,6.3,31,0.00,,CLR,0.00,VWS V14.01,2013-02-15 20:10:00,
2013-02-15 12:15:00,65.3,33.1,30.19,NNW,334,4.0,6.3,30,0.00,,CLR,0.00,VWS V14.01,2013-02-15 20:15:00,
2013-02-15 12:20:00,65.5,33.3,30.19,SW,230,4.9,6.9,30,0.00,,CLR,0.00,VWS V14.01,2013-02-15 20:20:00,
2013-02-15 12:25:00,65.8,31.9,30.19,WSW,256,6.3,7.4,28,0.00,,CLR,0.00,VWS V14.01,2013-02-15 20:25:00,
2013-02-15 12:30:00,65.8,31.0,30.19,SW,228,0.0,4.9,27,0.00,,CLR,0.00,VWS V14.01,2013-02-15 20:30:00,
2013-02-15 12:35:00,66.2,31.3,30.19,WSW,251,3.6,4.9,27,0.00,,CLR,0.00,VWS V14.01,2013-02-15 20:35:00,
2013-02-15 12:40:00,66.6,30.6,30.19,SW,227,6.7,6.7,26,0.00,,CLR,0.00,VWS V14.01,2013-02-15 20:40:00,
2013-02-15 12:46:00,66.9,31.0,30.16,WSW,250,4.5,6.9,26,0.00,,CLR,0.00,VWS V14.01,2013-02-15 20:46:00,
2013-02-15 12:51:00,67.1,31.1,30.16,WSW,249,3.1,5.4,26,0.00,,CLR,0.00,VWS V14.01,2013-02-15 20:51:00,
2013-02-15 12:56:00,67.1,30.1,30.16,WSW,243,4.0,9.2,25,0.00,,CLR,0.00,VWS V14.01,2013-02-15 20:56:00,
2013-02-15 13:01:00,67.3,29.3,30.16,WNW,291,5.8,6.3,24,0.00,,CLR,0.00,VWS V14.01,2013-02-15 21:01:00,
2013-02-15 13:06:00,67.5,29.4,30.16,WSW,238,4.9,6.9,24,0.00,,CLR,0.00,VWS V14.01,2013-02-15 21:06:00,
2013-02-15 13:11:00,67.5,29.4,30.16,WNW,286,7.4,7.4,24,0.00,,CLR,0.00,VWS V14.01,2013-02-15 21:11:00,
2013-02-15 13:16:00,67.6,29.6,30.16,SW,236,2.7,6.9,24,0.00,,CLR,0.00,VWS V14.01,2013-02-15 21:16:00,
2013-02-15 13:21:00,67.6,29.6,30.16,WSW,248,3.1,4.5,24,0.00,,CLR,0.00,VWS V14.01,2013-02-15 21:21:00,
2013-02-15 13:26:00,67.6,28.5,30.16,NNW,330,3.6,8.7,23,0.00,,CLR,0.00,VWS V14.01,2013-02-15 21:26:00,
2013-02-15 13:31:00,67.6,28.5,30.16,NW,318,4.9,5.8,23,0.00,,CLR,0.00,VWS V14.01,2013-02-15 21:31:00,
2013-02-15 13:36:00,67.6,28.5,30.16,West,279,4.0,5.8,23,0.00,,CLR,0.00,VWS V14.01,2013-02-15 21:36:00,
2013-02-15 13:41:00,67.5,28.4,30.16,WSW,245,5.8,6.3,23,0.00,,CLR,0.00,VWS V14.01,2013-02-15 21:41:00,
2013-02-15 13:46:00,67.8,28.7,30.16,West,272,5.8,6.3,23,0.00,,CLR,0.00,VWS V14.01,2013-02-15 21:46:00,
2013-02-15 13:52:00,68.0,28.9,30.16,West,268,4.9,6.9,23,0.00,,CLR,0.00,VWS V14.01,2013-02-15 21:52:00,
2013-02-15 13:57:00,68.0,28.9,30.16,West,276,5.8,8.3,23,0.00,,CLR,0.00,VWS V14.01,2013-02-15 21:57:00,
2013-02-15 14:02:00,68.0,28.9,30.16,WNW,300,8.7,9.2,23,0.00,,CLR,0.00,VWS V14.01,2013-02-15 22:02:00,
2013-02-15 14:07:00,68.0,28.9,30.16,WSW,247,8.7,8.7,23,0.00,,CLR,0.00,VWS V14.01,2013-02-15 22:07:00,
2013-02-15 14:12:00,68.0,28.9,30.16,WSW,257,5.4,7.8,23,0.00,,CLR,0.00,VWS V14.01,2013-02-15 22:12:00,
2013-02-15 14:17:00,68.4,29.1,30.16,NNW,329,3.1,6.3,23,0.00,,CLR,0.00,VWS V14.01,2013-02-15 22:17:00,
2013-02-15 14:22:00,68.5,29.3,30.16,SW,232,4.5,6.9,23,0.00,,CLR,0.00,VWS V14.01,2013-02-15 22:22:00,
2013-02-15 14:27:00,68.9,29.6,30.16,West,270,3.6,6.3,23,0.00,,CLR,0.00,VWS V14.01,2013-02-15 22:27:00,
2013-02-15 14:32:00,68.7,29.5,30.16,WNW,284,4.9,5.8,23,0.00,,CLR,0.00,VWS V14.01,2013-02-15 22:32:00,
2013-02-15 14:38:00,68.7,29.5,30.16,West,261,5.8,7.4,23,0.00,,CLR,0.00,VWS V14.01,2013-02-15 22:38:00,
2013-02-15 14:43:00,68.9,29.6,30.16,WNW,287,7.8,7.8,23,0.00,,CLR,0.00,VWS V14.01,2013-02-15 22:43:00,
2013-02-15 14:48:00,68.5,29.3,30.14,NW,310,5.8,6.9,23,0.00,,CLR,0.00,VWS V14.01,2013-02-15 22:48:00,
2013-02-15 14:53:00,68.4,29.1,30.14,WSW,253,4.9,7.8,23,0.00,,CLR,0.00,VWS V14.01,2013-02-15 22:53:00,
2013-02-15 14:59:00,68.4,29.1,30.14,NW,323,4.9,8.3,23,0.00,,CLR,0.00,VWS V14.01,2013-02-15 22:59:00,
2013-02-15 15:04:00,68.4,29.1,30.14,SW,233,4.5,6.3,23,0.00,,CLR,0.00,VWS V14.01,2013-02-15 23:04:00,
2013-02-15 15:09:00,68.5,29.3,30.14,West,266,4.9,4.9,23,0.00,,CLR,0.00,VWS V14.01,2013-02-15 23:09:00,
2013-02-15 15:14:00,68.5,29.3,30.14,NW,304,4.5,6.7,23,0.00,,CLR,0.00,VWS V14.01,2013-02-15 23:14:00,
2013-02-15 15:19:00,68.2,29.0,30.14,West,262,0.0,3.6,23,0.00,,CLR,0.00,VWS V14.01,2013-02-15 23:19:00,
2013-02-15 15:24:00,68.0,28.9,30.14,WSW,242,4.9,6.7,23,0.00,,CLR,0.00,VWS V14.01,2013-02-15 23:24:00,
2013-02-15 15:29:00,67.8,28.7,30.14,West,267,4.9,7.4,23,0.00,,CLR,0.00,VWS V14.01,2013-02-15 23:29:00,
2013-02-15 15:34:00,67.8,28.7,30.14,WNW,290,4.5,6.7,23,0.00,,CLR,0.00,VWS V14.01,2013-02-15 23:34:00,
2013-02-15 15:39:00,68.0,28.9,30.14,NNW,339,5.8,6.3,23,0.00,,CLR,0.00,VWS V14.01,2013-02-15 23:39:00,
2013-02-15 15:44:00,67.8,28.7,30.14,WNW,285,8.7,8.7,23,0.00,,CLR,0.00,VWS V14.01,2013-02-15 23:44:00,
2013-02-15 15:49:00,67.5,28.4,30.14,NNW,334,4.0,6.9,23,0.00,,CLR,0.00,VWS V14.01,2013-02-15 23:49:00,
2013-02-15 15:54:00,67.1,29.1,30.14,WNW,282,6.7,7.8,24,0.00,,CLR,0.00,VWS V14.01,2013-02-15 23:54:00,
2013-02-15 15:59:00,66.7,28.8,30.14,West,281,6.3,6.7,24,0.00,,CLR,0.00,VWS V14.01,2013-02-15 23:59:00,
2013-02-15 16:05:00,66.6,28.7,30.14,WNW,283,4.5,6.7,24,0.00,,CLR,0.00,VWS V14.01,2013-02-16 00:05:00,
2013-02-15 16:10:00,66.6,28.7,30.14,West,260,4.5,4.5,24,0.00,,CLR,0.00,VWS V14.01,2013-02-16 00:10:00,
2013-02-15 16:15:00,66.4,28.5,30.14,West,265,4.5,6.9,24,0.00,,CLR,0.00,VWS V14.01,2013-02-16 00:15:00,
2013-02-15 16:20:00,66.4,28.5,30.14,NW,304,6.7,6.9,24,0.00,,CLR,0.00,VWS V14.01,2013-02-16 00:20:00,
2013-02-15 16:25:00,66.2,28.4,30.14,NW,307,5.4,8.3,24,0.00,,CLR,0.00,VWS V14.01,2013-02-16 00:25:00,
2013-02-15 16:30:00,66.0,28.2,30.14,WNW,291,5.4,5.4,24,0.00,,CLR,0.00,VWS V14.01,2013-02-16 00:30:00,
2013-02-15 16:35:00,65.8,28.1,30.14,WNW,300,6.7,6.9,24,0.00,,CLR,0.00,VWS V14.01,2013-02-16 00:35:00,
2013-02-15 16:40:00,65.7,28.9,30.14,WNW,301,4.5,5.8,25,0.00,,CLR,0.00,VWS V14.01,2013-02-16 00:40:00,
2013-02-15 16:45:00,65.5,28.8,30.14,NW,312,4.5,4.9,25,0.00,,CLR,0.00,VWS V14.01,2013-02-16 00:45:00,
2013-02-15 16:50:00,65.3,28.6,30.14,NW,311,5.4,5.4,25,0.00,,CLR,0.00,VWS V14.01,2013-02-16 00:50:00,
2013-02-15 16:55:00,64.9,28.3,30.14,NW,308,4.9,4.9,25,0.00,,CLR,0.00,VWS V14.01,2013-02-16 00:55:00,
2013-02-15 17:00:00,64.6,28.0,30.14,WNW,303,4.0,5.4,25,0.00,,CLR,0.00,VWS V14.01,2013-02-16 01:00:00,
2013-02-15 17:05:00,64.4,28.8,30.14,WNW,303,3.1,3.6,26,0.00,,CLR,0.00,VWS V14.01,2013-02-16 01:05:00,
2013-02-15 17:11:00,63.9,28.3,30.14,NW,304,0.0,3.6,26,0.00,,CLR,0.00,VWS V14.01,2013-02-16 01:11:00,
2013-02-15 17:16:00,63.1,29.5,30.14,NW,304,0.0,0.0,28,0.00,,CLR,0.00,VWS V14.01,2013-02-16 01:16:00,
2013-02-15 17:21:00,61.7,30.0,30.14,NW,304,0.0,0.0,30,0.00,,CLR,0.00,VWS V14.01,2013-02-16 01:21:00,
2013-02-15 17:26:00,60.6,32.1,30.14,WNW,303,0.0,0.0,34,0.00,,CLR,0.00,VWS V14.01,2013-02-16 01:26:00,
2013-02-15 17:32:00,59.2,31.6,30.14,WNW,303,0.0,0.0,35,0.00,,CLR,0.00,VWS V14.01,2013-02-16 01:32:00,
2013-02-15 17:37:00,58.1,31.3,30.14,WNW,303,3.6,4.0,36,0.00,,CLR,0.00,VWS V14.01,2013-02-16 01:37:00,
2013-02-15 17:42:00,57.0,31.7,30.14,WNW,303,4.0,4.0,38,0.00,,CLR,0.00,VWS V14.01,2013-02-16 01:42:00,
2013-02-15 17:47:00,56.5,31.8,30.14,WNW,300,4.5,4.9,39,0.00,,CLR,0.00,VWS V14.01,2013-02-16 01:47:00,
2013-02-15 17:52:00,55.9,32.0,30.14,South,178,4.9,4.9,40,0.00,,CLR,0.00,VWS V14.01,2013-02-16 01:52:00,
2013-02-15 17:57:00,55.4,32.7,30.14,SSE,147,4.9,4.9,42,0.00,,CLR,0.00,VWS V14.01,2013-02-16 01:57:00,
2013-02-15 18:02:00,54.5,33.0,30.14,SE,128,5.4,5.4,44,0.00,,CLR,0.00,VWS V14.01,2013-02-16 02:02:00,
2013-02-15 18:07:00,54.1,33.3,30.14,SE,126,4.5,5.4,45,0.00,,CLR,0.00,VWS V14.01,2013-02-16 02:07:00,
2013-02-15 18:12:00,53.6,33.3,30.14,ESE,123,5.8,5.8,46,0.00,,CLR,0.00,VWS V14.01,2013-02-16 02:12:00,
2013-02-15 18:18:00,52.9,33.2,30.14,ESE,119,5.8,6.7,47,0.00,,CLR,0.00,VWS V14.01,2013-02-16 02:18:00,
2013-02-15 18:23:00,52.5,33.4,30.14,ESE,118,6.7,6.7,48,0.00,,CLR,0.00,VWS V14.01,2013-02-16 02:23:00,
2013-02-15 18:28:00,51.8,33.3,30.14,SE,124,5.4,6.7,49,0.00,,CLR,0.00,VWS V14.01,2013-02-16 02:28:00,
2013-02-15 18:33:00,51.4,33.4,30.16,ESE,109,5.8,6.7,50,0.00,,CLR,0.00,VWS V14.01,2013-02-16 02:33:00,
2013-02-15 18:38:00,51.4,33.4,30.16,ESE,116,5.8,6.7,50,0.00,,CLR,0.00,VWS V14.01,2013-02-16 02:38:00,
2013-02-15 18:43:00,51.1,33.1,30.16,ESE,121,6.7,6.7,50,0.00,,CLR,0.00,VWS V14.01,2013-02-16 02:43:00,
2013-02-15 18:48:00,50.4,32.9,30.16,ESE,118,5.4,6.3,51,0.00,,CLR,0.00,VWS V14.01,2013-02-16 02:48:00,
2013-02-15 18:53:00,50.2,33.2,30.16,SE,126,6.7,6.7,52,0.00,,CLR,0.00,VWS V14.01,2013-02-16 02:53:00,
2013-02-15 18:58:00,50.2,33.7,30.16,ESE,119,6.3,6.3,53,0.00,,CLR,0.00,VWS V14.01,2013-02-16 02:58:00,
2013-02-15 19:03:00,50.2,34.7,30.16,ESE,117,5.8,6.7,55,0.00,,CLR,0.00,VWS V14.01,2013-02-16 03:03:00,
2013-02-15 19:08:00,50.9,35.8,30.16,ESE,117,5.8,6.3,56,0.00,,CLR,0.00,VWS V14.01,2013-02-16 03:08:00,
2013-02-15 19:13:00,50.7,33.3,30.16,ESE,116,4.9,5.8,51,0.00,,CLR,0.00,VWS V14.01,2013-02-16 03:13:00,
2013-02-15 19:18:00,50.5,33.6,30.16,ESE,119,5.8,6.3,52,0.00,,CLR,0.00,VWS V14.01,2013-02-16 03:18:00,
2013-02-15 19:24:00,50.4,33.4,30.16,ESE,118,5.8,6.3,52,0.00,,CLR,0.00,VWS V14.01,2013-02-16 03:24:00,
2013-02-15 19:29:00,49.8,32.9,30.16,SE,125,5.8,6.9,52,0.00,,CLR,0.00,VWS V14.01,2013-02-16 03:29:00,
2013-02-15 19:34:00,49.3,33.4,30.16,ESE,121,4.5,5.4,54,0.00,,CLR,0.00,VWS V14.01,2013-02-16 03:34:00,
2013-02-15 19:39:00,48.9,33.5,30.16,ESE,121,4.9,5.8,55,0.00,,CLR,0.00,VWS V14.01,2013-02-16 03:39:00,
2013-02-15 19:44:00,48.7,33.8,30.16,ESE,121,4.9,4.9,56,0.00,,CLR,0.00,VWS V14.01,2013-02-16 03:44:00,
2013-02-15 19:49:00,48.7,34.6,30.16,ESE,120,5.4,5.8,58,0.00,,CLR,0.00,VWS V14.01,2013-02-16 03:49:00,
2013-02-15 19:54:00,48.2,33.3,30.16,ESE,121,5.4,5.8,56,0.00,,CLR,0.00,VWS V14.01,2013-02-16 03:54:00,
2013-02-15 19:59:00,47.8,34.2,30.16,ESE,118,5.4,5.4,59,0.00,,CLR,0.00,VWS V14.01,2013-02-16 03:59:00,
2013-02-15 20:04:00,48.4,35.2,30.16,ESE,115,4.9,5.8,60,0.00,,CLR,0.00,VWS V14.01,2013-02-16 04:04:00,
2013-02-15 20:09:00,47.8,34.2,30.16,ESE,116,5.4,5.8,59,0.00,,CLR,0.00,VWS V14.01,2013-02-16 04:09:00,
2013-02-15 20:14:00,47.5,34.3,30.16,ESE,117,4.0,5.4,60,0.00,,CLR,0.00,VWS V14.01,2013-02-16 04:14:00,
2013-02-15 20:19:00,46.9,34.6,30.16,ESE,116,4.5,4.5,62,0.00,,CLR,0.00,VWS V14.01,2013-02-16 04:19:00,
2013-02-15 20:24:00,47.1,36.0,30.16,ESE,116,5.8,5.8,65,0.00,,CLR,0.00,VWS V14.01,2013-02-16 04:24:00,
2013-02-15 20:30:00,47.3,35.8,30.16,ESE,116,5.8,5.8,64,0.00,,CLR,0.00,VWS V14.01,2013-02-16 04:30:00,
2013-02-15 20:35:00,47.7,35.7,30.16,ESE,116,5.4,6.3,63,0.00,,CLR,0.00,VWS V14.01,2013-02-16 04:35:00,
2013-02-15 20:40:00,47.3,35.0,30.16,ESE,116,5.4,5.4,62,0.00,,CLR,0.00,VWS V14.01,2013-02-16 04:40:00,
2013-02-15 20:45:00,46.8,35.2,30.16,ESE,114,5.4,5.8,64,0.00,,CLR,0.00,VWS V14.01,2013-02-16 04:45:00,
2013-02-15 20:50:00,47.1,36.0,30.16,ESE,115,4.9,4.9,65,0.00,,CLR,0.00,VWS V14.01,2013-02-16 04:50:00,
2013-02-15 20:55:00,47.5,36.7,30.16,ESE,116,5.4,5.4,66,0.00,,CLR,0.00,VWS V14.01,2013-02-16 04:55:00,
2013-02-15 21:00:00,47.1,35.2,30.16,ESE,116,4.5,5.8,63,0.00,,CLR,0.00,VWS V14.01,2013-02-16 05:00:00,
2013-02-15 21:02:00,46.8,35.2,30.16,ESE,116,5.8,5.8,64,0.00,,CLR,0.00,VWS V14.01,2013-02-16 05:02:00,
2013-02-15 21:07:00,46.8,35.6,30.16,ESE,117,4.9,5.8,65,0.00,,CLR,0.00,VWS V14.01,2013-02-16 05:07:00,
2013-02-15 21:12:00,46.6,35.8,30.16,ESE,114,5.8,5.8,66,0.00,,CLR,0.00,VWS V14.01,2013-02-16 05:12:00,
2013-02-15 21:17:00,46.4,35.7,30.16,ESE,114,5.4,5.8,66,0.00,,CLR,0.00,VWS V14.01,2013-02-16 05:17:00,
2013-02-15 21:22:00,45.9,34.8,30.16,ESE,113,4.0,4.9,65,0.00,,CLR,0.00,VWS V14.01,2013-02-16 05:22:00,
2013-02-15 21:27:00,44.8,34.1,30.16,ESE,114,5.8,5.8,66,0.00,,CLR,0.00,VWS V14.01,2013-02-16 05:27:00,
2013-02-15 21:28:00,44.8,34.1,30.16,ESE,114,4.5,5.8,66,0.00,,CLR,0.00,VWS V14.01,2013-02-16 05:28:00,
2013-02-15 21:34:00,44.6,35.1,30.16,ESE,114,4.5,4.9,69,0.00,,CLR,0.00,VWS V14.01,2013-02-16 05:34:00,
2013-02-15 21:39:00,43.7,34.2,30.16,ESE,114,4.5,5.8,69,0.00,,CLR,0.00,VWS V14.01,2013-02-16 05:39:00,
2013-02-15 21:44:00,43.3,34.9,30.16,ESE,113,5.8,5.8,72,0.00,,CLR,0.00,VWS V14.01,2013-02-16 05:44:00,
2013-02-15 21:49:00,43.3,35.3,30.16,ESE,114,4.0,4.5,73,0.00,,CLR,0.00,VWS V14.01,2013-02-16 05:49:00,
2013-02-15 21:54:00,43.3,35.6,30.16,ESE,113,5.8,5.8,74,0.00,,CLR,0.00,VWS V14.01,2013-02-16 05:54:00,
2013-02-15 21:59:00,43.3,35.6,30.16,ESE,116,4.0,4.5,74,0.00,,CLR,0.00,VWS V14.01,2013-02-16 05:59:00,
2013-02-15 22:04:00,42.8,34.8,30.16,ESE,116,4.5,4.5,73,0.00,,CLR,0.00,VWS V14.01,2013-02-16 06:04:00,
2013-02-15 22:09:00,42.1,34.1,30.16,ESE,117,5.8,5.8,73,0.00,,CLR,0.00,VWS V14.01,2013-02-16 06:09:00,
2013-02-15 22:14:00,42.3,34.9,30.16,ESE,115,5.8,5.8,75,0.00,,CLR,0.00,VWS V14.01,2013-02-16 06:14:00,
2013-02-15 22:19:00,42.1,35.1,30.16,ESE,117,4.0,4.5,76,0.00,,CLR,0.00,VWS V14.01,2013-02-16 06:19:00,
2013-02-15 22:24:00,41.9,34.6,30.16,ESE,116,3.6,4.5,75,0.00,,CLR,0.00,VWS V14.01,2013-02-16 06:24:00,
2013-02-15 22:29:00,42.1,35.1,30.16,ESE,117,4.0,4.0,76,0.00,,CLR,0.00,VWS V14.01,2013-02-16 06:29:00,
2013-02-15 22:34:00,41.7,35.0,30.16,ESE,116,4.0,4.0,77,0.00,,CLR,0.00,VWS V14.01,2013-02-16 06:34:00,
2013-02-15 22:40:00,41.2,34.2,30.16,ESE,117,4.5,5.4,76,0.00,,CLR,0.00,VWS V14.01,2013-02-16 06:40:00,
2013-02-15 22:45:00,41.0,34.3,30.16,ESE,117,4.9,5.4,77,0.00,,CLR,0.00,VWS V14.01,2013-02-16 06:45:00,
2013-02-15 22:50:00,41.0,34.7,30.16,ESE,117,4.5,5.4,78,0.00,,CLR,0.00,VWS V14.01,2013-02-16 06:50:00,
2013-02-15 22:55:00,40.8,34.5,30.16,ESE,116,4.5,4.5,78,0.00,,CLR,0.00,VWS V14.01,2013-02-16 06:55:00,
2013-02-15 23:00:00,40.3,33.7,30.16,ESE,116,3.6,4.5,77,0.00,,CLR,0.00,VWS V14.01,2013-02-16 07:00:00,
2013-02-15 23:05:00,40.5,34.2,30.16,ESE,117,5.4,5.4,78,0.00,,CLR,0.00,VWS V14.01,2013-02-16 07:05:00,
2013-02-15 23:10:00,40.3,34.3,30.16,ESE,117,4.5,5.4,79,0.00,,CLR,0.00,VWS V14.01,2013-02-16 07:10:00,
2013-02-15 23:15:00,39.9,33.6,30.16,ESE,116,4.0,4.9,78,0.00,,CLR,0.00,VWS V14.01,2013-02-16 07:15:00,
2013-02-15 23:20:00,40.3,34.3,30.16,ESE,117,3.6,4.0,79,0.00,,CLR,0.00,VWS V14.01,2013-02-16 07:20:00,
2013-02-15 23:25:00,40.1,34.4,30.16,ESE,117,4.9,4.9,80,0.00,,CLR,0.00,VWS V14.01,2013-02-16 07:25:00,
2013-02-15 23:30:00,40.3,34.9,30.16,ESE,117,4.0,4.9,81,0.00,,CLR,0.00,VWS V14.01,2013-02-16 07:30:00,
2013-02-15 23:35:00,40.3,34.6,30.16,ESE,117,4.5,4.9,80,0.00,,CLR,0.00,VWS V14.01,2013-02-16 07:35:00,
2013-02-15 23:40:00,39.9,34.3,30.16,ESE,117,4.0,4.9,80,0.00,,CLR,0.00,VWS V14.01,2013-02-16 07:40:00,
2013-02-15 23:46:00,39.7,33.8,30.16,ESE,117,4.9,5.8,79,0.00,,CLR,0.00,VWS V14.01,2013-02-16 07:46:00,
2013-02-15 23:51:00,39.7,34.1,30.16,ESE,117,4.0,4.5,80,0.00,,CLR,0.00,VWS V14.01,2013-02-16 07:51:00,
2013-02-15 23:56:00,39.4,33.1,30.16,ESE,116,4.9,5.4,78,0.00,,CLR,0.00,VWS V14.01,2013-02-16 07:56:00,